Regional Weather Roundup
Issued by NWS Grand Forks, ND

Home | Current Version | Previous Version | Graphics & Text | Print | Product List | Glossary On
Versions: 1 2 3 4 5 6 7 8 9 10 11 12 13 14 15 16 17 18 19 20 21 22 23 24 25 26 27 28 29 30 31 32 33 34 35 36 37 38 39 40 41 42 43 44 45 46 47 48 49 50
000
ASUS43 KFGF 182331
RWRFGF
PRAIRIE TO PINES  WEATHER ROUNDUP
NATIONAL WEATHER SERVICE EASTERN NORTH DAKOTA/GRAND FORKS ND
600 PM CDT FRI APR 18 2014

 **SATELLITE DATA USED TO AUGMENT SKY COVER AT AUTOMATED STATIONS**
 *****  WEATHER ACROSS EASTERN NORTH DAKOTA  *****

CITY           SKY/WX    TMP DP  RH WIND       PRES   REMARKS
GRAND FORKS    CLOUDY    50  30  46 SE21      30.04F
GRAND FRKS AFB CLOUDY    50  29  45 SE23G33   30.03F
GRAND FRKS NWS   N/A     48 N/A N/A SE26        N/A
DEVILS LAKE    CLOUDY    45  28  53 SE25G33   29.89F
FARGO          CLOUDY    50  29  44 SE20G32   30.05F
WAHPETON ARPT  MOCLDY    46  30  53 SE26G36   30.04F
$$

 ***** WEATHER ACROSS CENTRAL AND WESTERN NORTH DAKOTA  *****

CITY           SKY/WX    TMP DP  RH WIND       PRES   REMARKS
BISMARCK       PTSUNNY   65  40  39 SE28G36   29.69F
MINOT          CLOUDY    51  33  50 E25G39    29.74F
JAMESTOWN      CLOUDY    48  34  58 SE31G44   29.87F
MINOT AFB      CLOUDY    51  35  52 SE25G32   29.74F
GARRISON         N/A     54  37  52 SE22      29.68F
WILLISTON      CLOUDY    55  35  47 SE12G24   29.66F
DICKINSON      PTSUNNY   63  37  38 SE20      29.62S
HETTINGER      CLOUDY    65  39  38 SE14G22   29.61F
$$

 *****  OTHER AIRPORT OBSERVATIONS IN OUR AREA  *****

CITY           SKY/WX    TMP DP  RH WIND       PRES   REMARKS
WALHALLA         N/A     46  28  49 SE18G25   30.01F
GRAFTON AIRPOR CLOUDY    48  32  53 SE18G24   30.04F
VALLEY CITY AR FAIR      48  32  53 SE22G41   29.93F
CANDO          CLOUDY    48  32  53 SE30G39   29.90F
CAVALIER APRT  CLOUDY    48  32  53 SE14G23   30.03F
GWINNER        CLEAR     48  36  61 SE32G40   29.94F
SHEYENNE NWR     N/A     52  32  46 SE28      29.95S
ROLLA          MOCLDY    45  30  57 SE25G40   29.90F
 ***** THE ABOVE OBSERVATIONS ARE NON NWS ARE NOT QUALITY
       CONTROLLED AND MAY MIS-REPORT RAIN FOR SNOW...
$$

  *****  WEATHER ACROSS NORTHERN MINNESOTA  *****

CITY           SKY/WX    TMP DP  RH WIND       PRES   REMARKS
FLAG ISLAND    MOSUNNY   43  16  33 E10G17    30.19F
WARROAD        PTSUNNY   41  28  60 E9        30.16F
ROSEAU         CLOUDY    48  18  29 SE18G24   30.13F
HALLOCK        CLOUDY    48  23  37 SE18      30.07F
THF RVR FALLS  CLOUDY    48  23  37 SE21      30.10F
BAUDETTE       MOSUNNY   46  15  28 E18       30.19F
WASKISH        PTSUNNY   48  19  32 E17       30.18F
CROOKSTON      CLOUDY    50  28  43 SE18G26   30.08F
$$
  *****  WEATHER ACROSS CENTRAL AND WEST MINNESOTA  *****

CITY           SKY/WX    TMP DP  RH WIND       PRES   REMARKS
FOSSTON        CLOUDY    46  23  39 SE15G21   30.11S
BEMIDJI        CLOUDY    46  22  39 SE20G30   30.16F
PARK RAPIDS    PTSUNNY   46  23  40 SE22G29   30.15F
ELBOW LAKE     FAIR      45  31  58 SE23G30   30.10F
WADENA         PTSUNNY   43  27  52 SE20G26   30.15F
DETROIT LAKES  PTSUNNY   45  28  53 SE24G32   30.12F
MOORHEAD       CLOUDY    48  28  46 SE18G29   30.07F
FERGUS FALLS   PTSUNNY   46  25  42 SE24G31   30.07F
MORRIS MN      SUNNY     48  36  61 SE29G35   30.07F
STAPLES        CLOUDY    43  25  49 SE15      30.18F
$$
  *****  WEATHER ELSEWHERE ACROSS MINNESOTA  *****

CITY           SKY/WX    TMP DP  RH WIND       PRES   REMARKS
DULUTH         MOSUNNY   37  18  46 E14       30.32F
INTRNTL FALLS  SUNNY     46  14  27 E14       30.25F
ELY            SUNNY     43  21  42 SE10      30.30S
CLOQUET        PTSUNNY   39  16  38 E9        30.29F
WHEATON        MOSUNNY   52  39  62 E31G43    30.04F
BRAINERD       CLOUDY    47  22  37 SE14G21   30.23F
HIBBING        MOSUNNY   46  18  32 SE16      30.27F
ALEXANDRIA     MOSUNNY   45  29  53 SE15G26   30.16S
SAINT CLOUD    CLOUDY    45  27  49 E13       30.22F
MINNEAPOLIS    CLOUDY    51  26  37 SE17      30.25F
$$

  *****  WEATHER ACROSS SOUTH DAKOTA  *****

CITY           SKY/WX    TMP DP  RH WIND       PRES   REMARKS
SIOUX FALLS    CLOUDY    63  36  36 S25G36    29.99F
BROOKINGS      NOT AVBL
WATERTOWN      MOSUNNY   60  35  39 S25G38    29.94F
HURON          PTSUNNY   70  38  31 S23G37    29.83F
SISSETON         N/A     49  37  63 SE31G39   29.99F
ABERDEEN       MOSUNNY   68  38  33 S35G46    29.82F
MITCHELL       CLOUDY    70  41  34 S31G41    29.87F
PIERRE         CLOUDY    77  37  23 S30G40    29.64F
MOBRIDGE       CLOUDY    72  37  28 SE23      29.60F
RAPID CITY     CLOUDY    73  37  27 S18       29.62F
$$

  *****  SOME WEATHER IN NEARBY STATES *****

CITY           SKY/WX    TMP DP  RH WIND       PRES   REMARKS
GLASGOW MT     CLOUDY    50  46  86 SE8       29.64F
GREAT FALLS MT MOSUNNY   50  15  24 W30G44    29.72R
CHEYENNE WY    PTSUNNY   71  24  17 SW18G25   29.89F
SCOTTSBLUFF NE PTSUNNY   81  33  17 S22G29    29.76F
OMAHA NE       MOSUNNY   69  37  30 S20       30.09F
DES MOINES IA  MOSUNNY   65  32  29 SE15G22   30.19F
DAVENPORT IA   SUNNY     61  27  27 E7        30.27F
CHICAGO IL     SUNNY     46  31  55 NE14      30.34R
EAU CLAIRE WI  PTSUNNY   51  21  30 NE10      30.30F
LA CROSSE WI   PTSUNNY   54  26  34 N5        30.29F
$$

  *****  SOME NATIONAL WEATHER *****

CITY           SKY/WX    TMP DP  RH WIND       PRES   REMARKS
LA GUARDIA NY  CLOUDY    44  30  57 S6        30.32F
RALEIGH NC     CLOUDY    58  40  51 NE7       30.26F
ATLANTA GA     RAIN      50  48  93 NE13      30.14R FOG
NEW ORLEANS LA PTSUNNY   70  58  65 NE15G23   30.06S
OKLAHOMA CITY  MOSUNNY   74  42  31 S7        30.12F
ALBUQUERQUE NM PTSUNNY   78  22  12 S16G24    30.00F
SALT LAKE CITY CLOUDY    63  39  41 NW13      29.93F
LOS ANGELES CA PTSUNNY   66  54  65 W15       29.89F
BOISE ID       SUNNY     61  27  27 N8        29.97F
SEATTLE WA     PTSUNNY   56  34  43 VRB3      30.09F
$$

*** WEATHER ACROSS MANITOBA...SASKATCHEWAN AND ONTARIO ***
                ***ONTARIO***

CITY           SKY/WX    TMP DP  RH WIND       PRES   REMARKS
GERALDTON      SUNNY     41  12  30 NE6       30.35S
THUNDER BAY    MOSUNNY   41  28  60 S7        30.40R
SIOUX LOOKOUT  PTSUNNY   43   3  19 S7        30.32F
TORONTO        PTSUNNY   50  36  57 NW18      30.23F
BIG TROUT LK   SUNNY     37   9  30 S7        30.37S
PICKLE LAKE    MOSUNNY   43   7  22 W2        30.34S
DRYDEN         SUNNY     41  14  33 SE10      30.28F
KENORA         PTSUNNY   43   9  24 SE16G22   30.24F
$$
                *** MANITOBA***

CITY           SKY/WX    TMP DP  RH WIND       PRES   REMARKS
BRANDON        CLOUDY    39  27  60 E20G31    29.96F
DAUPHIN        LGT RAIN  36  27  69 SE33G44   30.00F
ISLAND LAKE    MOSUNNY   43  14  31 E8        30.29F
PILOT MOUND      N/A     43  28  56 SE26G35     N/A
THE PAS        PTSUNNY   37  12  35 SE14G21   30.10F
THOMPSON       MOSUNNY   41   7  24 SE10      30.24F
WINNIPEG       CLOUDY    45  21  39 E22G28    30.10F
LYNN LAKE      SUNNY     41   7  24 SE17G23   30.15F
CHURCHILL      SUNNY     23  16  74 S9        30.40F WCI  13
GILLAM         SUNNY     39  18  41 NE7       30.34F
$$
                ***SASKATCHEWAN***

CITY           SKY/WX    TMP DP  RH WIND       PRES   REMARKS
ESTEVAN        CLOUDY    48  32  53 SE17G24   29.74R
KINDERSLEY     RAIN      45  43  93 S9        29.58R
LLOYDMINSTER   CLOUDY    32  30  93 E12G18    29.69R WCI  23
PRINCE ALBERT  LGT SNOW  32  30  93 E21G28    29.87S VSB 3/4 WCI  20
REGINA         LGT RAIN  37  34  87 SE21G29   29.71F FOG
YORKTON        LGT SNOW  32  28  86 SE23G33   29.84S WCI  19
N. BATTLEFORD  LGT RAIN  34  32  93 E20G25    29.71S WCI  22
LA RONGE       PTSUNNY   41  19  42 E17G25    29.95F
SASKATOON      LGT SNOW  32  32 100 E14       29.74S VSB 3/4 WCI  22
SWIFT CURRENT  LGT RAIN  43  39  87 W13       29.59R
$$
NOTE: THESE ARE AUTOMATED STATIONS WITH LIMITED QUALITY CONTROL
      "FAIR" INDICATES FEW OR NO CLOUDS BELOW 12,000 FEET WITH NO
      SIGNIFICANT WEATHER AND/OR OBSTRUCTIONS TO VISIBILITY.
      SKY/WX - SKY CONDITION AND SIGNIFICANT WEATHER.
      TMP - AIR TEMPERATURE.    DP   - DEWPOINT TEMPERATURE.
      RH  - RELATIVE HUMIDITY.  PRES - PRESSURE.
      HX  - HEAT INDEX.         WCI  - WIND CHILL INDEX.
$



USA.gov is the U.S. government's official web portal to all federal, state and local government web resources and services.